GW0759 Weather Reports


time (UTC)temp
F
wind
direction
speed
knots
gust
knots
rain 1hr
in
rain 24hr
in
rain mn
in
humidity
%
barometer
mb
20260509184549 86 228 1.7 6.1 0.00 0.02 0.00 48 1008.3
20260509183056 86 220 3.5 11.3 0.00 0.02 0.00 51 1008.5
20260509181608 86 5 2.6 8.7 0.00 0.02 0.00 52 1008.6
20260509180056 86 25 1.7 7.0 0.00 0.02 0.00 52 1008.8
20260509174554 85 323 4.3 8.7 0.00 0.02 0.00 51 1008.9
20260509173057 84 287 3.5 8.7 0.00 0.02 0.00 51 1009.0
20260509171607 84 15 3.5 9.6 0.00 0.02 0.00 54 1009.2
20260509170047 83 355 3.5 8.7 0.00 0.02 0.00 53 1009.2
20260509164546 82 315 2.6 9.6 0.00 0.02 0.00 55 1009.3
20260509163059 82 304 4.3 10.4 0.00 0.02 0.00 60 1009.5
20260509161549 81 275 2.6 7.0 0.00 0.02 0.00 56 1009.4
20260509160048 80 277 1.7 7.0 0.00 0.02 0.00 59 1009.4
20260509154551 79 323 3.5 7.8 0.00 0.02 0.00 61 1009.4
20260509153051 79 355 3.5 7.0 0.00 0.02 0.00 65 1009.4
20260509151549 78 346 5.2 10.4 0.00 0.02 0.00 64 1009.2
20260509150050 76 333 7.0 10.4 0.00 0.02 0.00 66 1009.1
20260509144546 76 336 2.6 8.7 0.00 0.02 0.00 68 1009.2
20260509143052 74 343 6.1 9.6 0.00 0.02 0.00 72 1009.2
20260509141549 73 360 3.5 9.6 0.00 0.02 0.00 77 1009.2
20260509140051 70 336 5.2 11.3 0.00 0.02 0.00 81 1009.3
20260509134552 70 348 7.0 11.3 0.00 0.02 0.00 80 1009.4
20260509133058 70 304 7.0 11.3 0.00 0.02 0.00 82 1009.3
20260509131549 69 323 7.0 11.3 0.00 0.02 0.00 81 1009.1
20260509130046 68 342 7.0 11.3 0.00 0.02 0.00 81 1008.9
20260509124555 68 347 5.2 9.6 0.00 0.02 0.00 82 1008.9
20260509123049 66 325 3.5 7.0 0.00 0.02 0.00 83 1008.8
20260509121549 65 327 1.7 3.5 0.00 0.02 0.00 84 1008.7
20260509120050 66 0 0.0 0.0 0.00 0.02 0.00 86 1008.6
20260509114556 67 0 0.0 0.0 0.00 0.02 0.00 85 1008.8
20260509113050 67 0 0.0 2.6 0.00 0.02 0.00 87 1008.7
20260509111557 68 0 0.0 5.2 0.00 0.02 0.00 89 1008.5
20260509110058 69 279 1.7 7.0 0.00 0.02 0.00 90 1008.3
20260509104550 69 345 5.2 10.4 0.00 0.02 0.00 91 1008.3
20260509103050 69 344 3.5 13.0 0.00 0.02 0.00 92 1007.8
20260509101556 69 296 4.3 10.4 0.00 0.02 0.00 92 1007.6
20260509100105 69 188 3.5 13.9 0.00 0.02 0.00 92 1005.9
20260509094550 68 169 3.5 9.6 0.00 0.02 0.00 92 1005.9
20260509093055 68 190 3.5 10.4 0.00 0.02 0.00 92 1005.3
20260509091556 68 198 2.6 7.0 0.00 0.02 0.00 92 1005.9
20260509090052 68 188 3.5 7.8 0.00 0.02 0.00 92 1006.5
20260509084557 68 200 2.6 7.0 0.00 0.02 0.00 92 1006.8
20260509083057 68 148 2.6 7.0 0.00 0.02 0.00 92 1007.0
20260509081551 68 169 1.7 7.0 0.00 0.02 0.00 92 1007.6
20260509080106 68 0 0.9 3.5 0.00 0.02 0.00 92 1008.3
20260509074551 68 138 0.0 6.1 0.00 0.02 0.00 92 1009.2
20260509073149 68 335 2.6 17.4 0.00 0.02 0.00 93 1010.3
20260509071556 67 338 5.2 11.3 0.00 0.02 0.00 93 1010.7
20260509070054 67 328 2.6 4.3 0.00 0.02 0.00 93 1010.3
20260509064552 67 320 2.6 7.8 0.00 0.02 0.00 93 1010.5
20260509063049 67 331 0.9 7.0 0.00 0.02 0.00 93 1010.0
20260509061556 66 155 1.7 4.3 0.00 0.02 0.00 92 1009.8
20260509060051 66 0 0.0 0.0 0.00 0.02 0.00 92 1009.4
20260509054554 66 0 0.0 0.0 0.00 0.02 0.00 92 1008.8
20260509053051 66 0 0.0 0.0 0.00 0.02 0.00 91 1008.8
20260509051558 67 0 0.0 0.0 0.00 0.02 0.00 91 1008.9
20260509050053 68 0 0.0 1.7 0.00 0.02 0.00 89 1009.0
20260509044555 68 155 0.9 2.6 0.00 0.02 0.02 89 1009.2
20260509043058 69 0 0.0 2.6 0.00 0.02 0.02 89 1008.8
20260509041548 69 0 0.9 5.2 0.00 0.02 0.02 88 1008.2
20260509040104 69 117 1.7 4.3 0.00 0.02 0.02 88 1008.5
20260509034553 70 26 0.9 5.2 0.00 0.02 0.02 87 1008.3
20260509033054 70 156 0.9 7.0 0.00 0.02 0.02 86 1008.0
20260509031554 71 146 1.7 7.8 0.00 0.02 0.02 85 1007.9
20260509030055 71 183 2.6 6.1 0.00 0.02 0.02 85 1007.9
20260509024548 71 103 1.7 5.2 0.00 0.02 0.02 85 1007.9
20260509023053 72 176 1.7 4.3 0.00 0.02 0.02 84 1007.7
20260509021549 72 0 0.0 3.5 0.00 0.02 0.02 84 1007.6
20260509020054 72 0 0.0 3.5 0.00 0.02 0.02 84 1007.6
20260509014550 72 0 0.0 4.3 0.00 0.02 0.02 83 1007.4
20260509013102 72 159 0.9 6.1 0.00 0.02 0.02 83 1007.3
20260509011553 72 130 0.9 5.2 0.00 0.02 0.02 82 1007.2
20260509010056 73 151 0.9 4.3 0.00 0.02 0.02 82 1006.9
20260509004609 73 127 0.9 4.3 0.00 0.02 0.02 81 1006.6
20260509003058 73 0 0.0 1.7 0.00 0.02 0.02 81 1006.8
20260509001550 73 0 0.9 4.3 0.00 0.02 0.02 80 1006.9
20260509000053 74 143 0.9 3.5 0.00 0.02 0.02 79 1007.0
20260508234551 75 139 0.0 6.1 0.00 0.02 0.02 78 1006.8
20260508233058 76 138 0.9 5.2 0.00 0.02 0.02 77 1006.7
20260508231551 77 88 0.9 6.1 0.00 0.02 0.02 76 1006.7
20260508230100 77 148 3.5 8.7 0.00 0.02 0.02 74 1006.6
20260508224550 77 93 4.3 8.7 0.00 0.02 0.02 74 1006.7
20260508223053 75 198 3.5 9.6 0.00 0.02 0.02 76 1006.9
20260508221551 76 111 2.6 7.0 0.00 0.02 0.02 73 1007.1
20260508220053 76 156 1.7 7.0 0.00 0.02 0.02 74 1007.3
20260508214551 72 196 2.6 5.2 0.00 0.02 0.02 78 1007.6
20260508213053 73 134 1.7 7.0 0.00 0.02 0.02 77 1007.7
20260508211549 73 156 0.0 5.2 0.00 0.02 0.02 79 1007.9
20260508210106 74 123 2.6 9.6 0.00 0.02 0.02 77 1008.2
20260508204555 74 85 4.3 12.2 0.00 0.02 0.02 75 1007.9
20260508203049 71 113 4.3 11.3 0.02 0.02 0.02 81 1007.7
20260508201554 68 132 6.1 10.4 0.02 0.02 0.02 86 1007.9
20260508200052 67 140 0.9 2.6 0.02 0.02 0.02 86 1009.5
20260508194550 66 0 0.0 5.2 0.02 0.02 0.02 83 1010.2
20260508193059 68 169 1.7 6.1 0.00 0.00 0.00 76 1009.8
20260508191553 71 169 2.6 9.6 0.00 0.00 0.00 71 1010.0